Overview Statistics Trail Chart Weather Telemetry Raw packets
 

This is the latest recevied weather packets stored in our database for station/object EA1GEC-10. If no packets are shown the sender has not sent any weather packets the latest 10 day(s).

<< 22 23 24 25 26 27 28 >>
Time Temp. Humidity Pressure Rain* Wind** Luminosity Snow
1777282998 17.22° C 62% 1025.7 hPa - - - -
1777282098 16.67° C 64% 1025.8 hPa - - - -
1777281198 16.67° C 65% 1025.8 hPa - - - -
1777280298 15.56° C 66% 1025.8 hPa - - - -
1777279408 15.56° C 66% 1025.7 hPa - - - -
1777278498 16.11° C 66% 1025.8 hPa - - - -
1777277598 15.56° C 67% 1025.9 hPa - - - -
1777276698 15.56° C 67% 1025.9 hPa - - - -
1777275798 15.56° C 68% 1025.9 hPa - - - -
1777274898 15.56° C 68% 1026 hPa - - - -
1777273998 15.56° C 68% 1026 hPa - - - -
1777273098 15° C 69% 1026 hPa - - - -
1777272197 15° C 70% 1026 hPa - - - -
1777271301 15° C 71% 1025.9 hPa - - - -
1777269497 15.56° C 73% 1025.9 hPa - - - -
1777268597 15.56° C 75% 1025.9 hPa - - - -
1777267697 15.56° C 76% 1025.7 hPa - - - -
1777266797 15.56° C 76% 1025.7 hPa - - - -
1777265897 15.56° C 76% 1025.8 hPa - - - -
1777264997 15.56° C 75% 1025.7 hPa - - - -
1777264100 15.56° C 75% 1025.6 hPa - - - -
1777263196 16.11° C 76% 1025.7 hPa - - - -
1777262306 15.56° C 76% 1025.6 hPa - - - -
1777261406 15.56° C 76% 1025.7 hPa - - - -
1777260496 15.56° C 75% 1025.7 hPa - - - -

* Rain since midnight (hover to see other rain measurements)
** Current wind speed in m/s (hover to see current wind gust speed)